Find Starlink 32417

NORAD ID: 61673 Int'l Des: 2024-193 Owner: SPXS Country: US Constellation: starlink operational
LEOCIRCULAR

实时位置

正在加载3D地球...

关于 Starlink 32417

正在加载描述...

即将过境

Passes for default location (London). Set your location on the main map for personalized predictions.

高度历史

Loading altitude history...

两行轨道根数

1 61673U 24193N 26123.51938664 .00000392 00000-0 25387-4 0 9991
2 61673 53.1600 196.1617 0001265 90.8910 269.2236 15.30185356 84922
Epoch: May 3, 2026 • Age: 14 hours

当前状态

高度 475.3 km
速度 7.63 km/s
星下点 17.59°N, 54.97°W
发射日期 Oct 26, 2024
运行时间 1.5 years
类型 internet

技术详情

分类 Payload
质量 730.00 kg
干质量 700.00 kg
总质量 730.00 kg
长度 0.30 m
直径 4.10 m
跨度 29.00 m
形状 Box + pan
制造商 SPXS
平台类型 Starlink V2M
阶段状态 In Orbit
所有者/国家 SPXS/US

Most Searched